Date,TemperatureHighF,TemperatureAvgF,TemperatureLowF,DewpointHighF,DewpointAvgF,DewpointLowF,HumidityHigh,HumidityAvg,HumidityLow,PressureMaxIn,PressureMinIn,WindSpeedMaxMPH,WindSpeedAvgMPH,GustSpeedMaxMPH,PrecipitationSumIn
2013-9-1,72,68,62,66,60,53,87,75,63,29.96,29.68,18,6,18,0.01
2013-9-2,65,58,51,53,51,48,90,78,63,30.09,29.95,14,2,14,0.00
2013-9-3,79,62,50,60,54,48,93,75,47,30.10,29.99,9,1,9,0.01
2013-9-4,87,72,60,68,62,56,89,71,49,30.12,30.00,9,0,9,0.00
2013-9-5,83,72,63,68,61,54,85,69,57,30.19,30.07,13,4,13,0.00
2013-9-6,90,78,68,68,66,64,92,70,46,30.07,29.83,22,4,22,0.06
2013-9-7,92,80,69,72,67,62,88,67,45,29.96,29.81,16,2,16,0.00
2013-9-8,77,70,65,66,62,58,83,76,66,30.00,29.85,16,4,16,0.00
2013-9-9,93,78,68,74,69,64,92,75,50,29.85,29.59,20,4,20,0.01
2013-9-10,81,73,66,70,64,61,90,74,55,29.95,29.72,17,3,17,0.00
2013-9-11,82,72,63,63,58,50,89,63,36,30.04,29.95,20,5,20,0.00
2013-9-12,72,64,56,54,49,45,82,60,41,30.22,30.04,21,4,21,0.00
2013-9-13,70,59,47,48,45,43,91,64,42,30.28,30.08,12,1,12,0.00
2013-9-14,73,60,52,55,48,44,92,68,44,30.09,29.87,16,5,16,0.55
2013-9-15,65,58,51,55,53,46,93,84,67,30.30,29.86,15,3,15,0.37
2013-9-16,66,57,42,47,44,40,91,64,46,30.42,30.26,13,3,13,0.01
2013-9-17,66,56,48,57,50,42,92,78,63,30.26,29.94,26,6,26,0.02
2013-9-18,77,68,59,69,64,57,94,88,76,29.94,29.67,15,4,15,0.05
2013-9-19,77,71,64,69,65,55,92,82,67,29.78,29.61,26,4,26,0.27
2013-9-20,64,57,50,54,50,46,91,79,61,29.93,29.77,20,8,20,0.00
2013-9-21,64,54,46,49,46,43,90,75,54,30.00,29.91,12,2,12,0.00
2013-9-22,74,60,48,56,50,44,86,72,51,29.97,29.83,21,6,21,0.00
2013-9-23,73,62,54,54,51,48,81,67,47,29.94,29.85,25,8,25,0.00
2013-9-24,76,62,52,56,52,47,86,70,45,29.95,29.89,14,3,14,0.00
2013-9-25,74,63,52,55,52,49,89,69,48,29.96,29.84,16,3,16,0.00
2013-9-26,80,68,56,61,56,50,81,67,50,29.90,29.80,29,9,29,0.00
2013-9-27,83,73,66,64,61,59,79,66,49,29.88,29.76,34,10,34,0.00
2013-9-28,71,61,48,62,53,44,91,77,66,29.93,29.60,31,8,31,0.17
2013-9-29,77,61,48,49,45,41,84,59,34,29.97,29.78,22,6,22,0.00
2013-9-30,79,68,59,54,50,46,65,54,40,29.78,29.57,26,9,26,0.00